• în Republica Moldova
  • Lista ţărilor
  • Pe 7 zile
  • Temperatura apei
  • Hartă satelitară
  • Meteo pe hartă
  • Widget-uri
  • user-avatar
    Intrare

    Meteo pe oră la Linz

    Astăzi, 29 Aprilie, Sâmbătă

    Timp Temperatura Precipitaţii Vânt Presiune Umiditate
    00:00 +2°C° 0,2 mm 3 m/s 733 mmHg 98%
    01:00 +3°C° 0 mm 2 m/s 734 mmHg 97%
    02:00 +3°C° 0,1 mm 2 m/s 734 mmHg 97%
    03:00 +3°C° 0,1 mm 2 m/s 734 mmHg 97%
    04:00 +2°C° 0,1 mm 2 m/s 734 mmHg 97%
    05:00 +3°C° 0 mm 2 m/s 734 mmHg 95%
    06:00 +4°C° 0 mm 2 m/s 735 mmHg 93%
    07:00 +5°C° 0 mm 2 m/s 735 mmHg 91%
    08:00 +6°C° 0,1 mm 2 m/s 735 mmHg 88%
    09:00 +7°C° 0,1 mm 2 m/s 735 mmHg 84%
    10:00 +8°C° 0,1 mm 2 m/s 734 mmHg 81%
    11:00 +9°C° 0,1 mm 2 m/s 734 mmHg 75%
    12:00 +10°C° 0,1 mm 2 m/s 734 mmHg 70%
    13:00 +12°C° 0 mm 2 m/s 734 mmHg 66%
    14:00 +12°C° 0,1 mm 2 m/s 734 mmHg 65%
    15:00 +12°C° 0,1 mm 1 m/s 734 mmHg 63%
    16:00 +12°C° 0,1 mm 1 m/s 733 mmHg 62%
    17:00 +10°C° 0 mm 1 m/s 733 mmHg 71%
    18:00 +7°C° 0 mm 1 m/s 733 mmHg 81%
    19:00 +4°C° 0 mm 1 m/s 733 mmHg 90%
    20:00 +4°C° 0 mm 1 m/s 733 mmHg 90%
    21:00 +3°C° 0 mm 1 m/s 733 mmHg 89%
    22:00 +3°C° 0 mm 1 m/s 734 mmHg 89%
    23:00 +3°C° 0 mm 1 m/s 734 mmHg 89%

    Mâine, 30 Aprilie, Duminică

    Timp Temperatura Precipitaţii Vânt Presiune Umiditate
    00:00 +2°C° 0 mm 1 m/s 734 mmHg 89%
    01:00 +2°C° 0 mm 1 m/s 734 mmHg 88%
    02:00 +3°C° 0 mm 1 m/s 734 mmHg 88%
    03:00 +3°C° 0 mm 1 m/s 734 mmHg 88%
    04:00 +3°C° 0 mm 1 m/s 734 mmHg 87%
    05:00 +3°C° 0 mm 2 m/s 734 mmHg 83%
    06:00 +5°C° 0 mm 2 m/s 734 mmHg 78%
    07:00 +7°C° 0 mm 2 m/s 734 mmHg 74%
    08:00 +9°C° 0 mm 3 m/s 734 mmHg 69%
    09:00 +11°C° 0 mm 4 m/s 733 mmHg 64%
    10:00 +12°C° 0 mm 4 m/s 733 mmHg 59%
    11:00 +13°C° 0 mm 4 m/s 733 mmHg 57%
    12:00 +15°C° 0 mm 5 m/s 732 mmHg 55%
    13:00 +16°C° 0 mm 5 m/s 732 mmHg 54%
    14:00 +16°C° 0 mm 5 m/s 731 mmHg 55%
    15:00 +16°C° 0 mm 5 m/s 731 mmHg 57%
    16:00 +16°C° 0 mm 5 m/s 730 mmHg 59%
    17:00 +14°C° 0 mm 5 m/s 730 mmHg 65%
    18:00 +12°C° 0 mm 5 m/s 730 mmHg 71%
    19:00 +9°C° 0 mm 5 m/s 730 mmHg 78%
    20:00 +8°C° 0 mm 5 m/s 730 mmHg 80%
    21:00 +7°C° 0 mm 4 m/s 730 mmHg 83%
    22:00 +6°C° 0 mm 4 m/s 730 mmHg 86%
    23:00 +5°C° 0 mm 4 m/s 730 mmHg 88%

    Poimâine, 1 Mai, Luni

    Timp Temperatura Precipitaţii Vânt Presiune Umiditate
    00:00 +5°C° 0 mm 3 m/s 730 mmHg 90%
    01:00 +4°C° 0 mm 3 m/s 730 mmHg 92%
    02:00 +4°C° 0 mm 3 m/s 729 mmHg 92%
    03:00 +4°C° 0 mm 3 m/s 729 mmHg 93%
    04:00 +3°C° 0 mm 3 m/s 729 mmHg 94%
    05:00 +5°C° 0 mm 3 m/s 729 mmHg 89%
    06:00 +7°C° 0 mm 2 m/s 729 mmHg 84%
    07:00 +9°C° 0 mm 2 m/s 729 mmHg 79%
    08:00 +10°C° 0 mm 2 m/s 729 mmHg 73%
    09:00 +13°C° 0 mm 2 m/s 729 mmHg 67%
    10:00 +15°C° 0 mm 2 m/s 729 mmHg 60%
    11:00 +16°C° 0 mm 2 m/s 730 mmHg 59%
    12:00 +17°C° 0 mm 2 m/s 730 mmHg 58%
    13:00 +17°C° 0 mm 2 m/s 730 mmHg 57%
    14:00 +17°C° 0,1 mm 2 m/s 730 mmHg 63%
    15:00 +16°C° 0,1 mm 2 m/s 730 mmHg 68%
    16:00 +15°C° 0,1 mm 2 m/s 730 mmHg 74%
    17:00 +12°C° 0,5 mm 3 m/s 730 mmHg 81%
    18:00 +11°C° 0,5 mm 3 m/s 730 mmHg 87%
    19:00 +8°C° 0,5 mm 4 m/s 731 mmHg 94%
    20:00 +7°C° 0,9 mm 4 m/s 731 mmHg 94%
    21:00 +7°C° 0,9 mm 4 m/s 732 mmHg 95%
    22:00 +6°C° 0,9 mm 4 m/s 732 mmHg 96%
    23:00 +7°C° 0,6 mm 3 m/s 732 mmHg 96%

    2 Mai, Marţi

    Timp Temperatura Precipitaţii Vânt Presiune Umiditate
    00:00 +5°C° 0,6 mm 3 m/s 732 mmHg 96%
    01:00 +5°C° 0,6 mm 3 m/s 732 mmHg 96%
    02:00 +6°C° 0,1 mm 2 m/s 733 mmHg 96%
    03:00 +6°C° 0,1 mm 2 m/s 733 mmHg 96%
    04:00 +6°C° 0,1 mm 2 m/s 733 mmHg 96%
    05:00 +6°C° 0 mm 2 m/s 733 mmHg 95%
    06:00 +6°C° 0 mm 2 m/s 734 mmHg 94%
    07:00 +7°C° 0 mm 2 m/s 734 mmHg 93%
    08:00 +8°C° 0 mm 2 m/s 734 mmHg 88%
    09:00 +9°C° 0 mm 2 m/s 734 mmHg 83%
    10:00 +12°C° 0 mm 1 m/s 734 mmHg 77%
    11:00 +13°C° 0 mm 1 m/s 734 mmHg 73%
    12:00 +14°C° 0 mm 1 m/s 734 mmHg 68%
    13:00 +15°C° 0 mm 1 m/s 734 mmHg 64%
    14:00 +15°C° 0 mm 1 m/s 734 mmHg 64%
    15:00 +16°C° 0 mm 1 m/s 734 mmHg 64%
    16:00 +16°C° 0 mm 2 m/s 733 mmHg 63%
    17:00 +14°C° 0 mm 2 m/s 733 mmHg 71%
    18:00 +13°C° 0 mm 2 m/s 733 mmHg 78%
    19:00 +10°C° 0 mm 2 m/s 733 mmHg 85%
    20:00 +9°C° 0 mm 2 m/s 733 mmHg 87%
    21:00 +9°C° 0 mm 2 m/s 734 mmHg 88%
    22:00 +8°C° 0 mm 2 m/s 734 mmHg 89%
    23:00 +8°C° 0 mm 2 m/s 734 mmHg 90%

    3 Mai, Miercuri

    Timp Temperatura Precipitaţii Vânt Presiune Umiditate
    00:00 +8°C° 0 mm 2 m/s 734 mmHg 90%
    01:00 +7°C° 0 mm 2 m/s 734 mmHg 91%
    02:00 +7°C° 0 mm 2 m/s 733 mmHg 92%
    03:00 +7°C° 0 mm 2 m/s 733 mmHg 93%
    04:00 +7°C° 0 mm 2 m/s 733 mmHg 94%
    05:00 +8°C° 0 mm 2 m/s 733 mmHg 90%
    06:00 +9°C° 0 mm 2 m/s 733 mmHg 87%
    07:00 +12°C° 0 mm 1 m/s 733 mmHg 83%
    08:00 +14°C° 0 mm 1 m/s 733 mmHg 77%
    09:00 +15°C° 0 mm 1 m/s 732 mmHg 71%
    10:00 +18°C° 0 mm 1 m/s 732 mmHg 65%
    11:00 +19°C° 0 mm 1 m/s 732 mmHg 62%
    12:00 +19°C° 0 mm 1 m/s 732 mmHg 60%
    13:00 +20°C° 0 mm 1 m/s 731 mmHg 57%
    14:00 +20°C° 0,1 mm 1 m/s 731 mmHg 59%
    15:00 +19°C° 0,1 mm 1 m/s 731 mmHg 62%
    16:00 +19°C° 0,1 mm 1 m/s 730 mmHg 64%
    17:00 +16°C° 0,3 mm 1 m/s 730 mmHg 73%
    18:00 +15°C° 0,3 mm 1 m/s 730 mmHg 81%
    19:00 +13°C° 0,3 mm 2 m/s 730 mmHg 89%
    20:00 +12°C° 0,3 mm 2 m/s 730 mmHg 91%
    21:00 +10°C° 0,3 mm 2 m/s 731 mmHg 94%
    22:00 +9°C° 0,3 mm 2 m/s 731 mmHg 96%
    23:00 +9°C° 0 mm 2 m/s 731 mmHg 96%

    4 Mai, Joi

    Timp Temperatura Precipitaţii Vânt Presiune Umiditate
    00:00 +8°C° 0 mm 2 m/s 731 mmHg 97%
    01:00 +8°C° 0 mm 2 m/s 731 mmHg 97%
    02:00 +9°C° 0 mm 1 m/s 731 mmHg 97%
    03:00 +9°C° 0 mm 1 m/s 731 mmHg 97%
    04:00 +8°C° 0 mm 1 m/s 731 mmHg 96%
    05:00 +9°C° 0 mm 1 m/s 731 mmHg 94%
    06:00 +10°C° 0 mm 1 m/s 731 mmHg 92%
    07:00 +11°C° 0 mm 1 m/s 731 mmHg 89%
    08:00 +12°C° 0 mm 1 m/s 731 mmHg 85%
    09:00 +13°C° 0 mm 1 m/s 731 mmHg 80%
    10:00 +14°C° 0 mm 2 m/s 731 mmHg 75%
    11:00 +14°C° 0,3 mm 2 m/s 731 mmHg 75%
    12:00 +15°C° 0,3 mm 2 m/s 730 mmHg 75%
    13:00 +15°C° 0,3 mm 1 m/s 730 mmHg 75%
    14:00 +15°C° 0,5 mm 1 m/s 730 mmHg 78%
    15:00 +15°C° 0,5 mm 1 m/s 730 mmHg 81%
    16:00 +15°C° 0,5 mm 1 m/s 729 mmHg 83%
    17:00 +13°C° 0,7 mm 1 m/s 729 mmHg 87%
    18:00 +12°C° 0,7 mm 1 m/s 729 mmHg 92%
    19:00 +11°C° 0,7 mm 1 m/s 729 mmHg 96%
    20:00 +11°C° 0,6 mm 1 m/s 730 mmHg 96%
    21:00 +10°C° 0,6 mm 1 m/s 730 mmHg 96%
    22:00 +9°C° 0,6 mm 1 m/s 730 mmHg 96%
    23:00 +9°C° 0,1 mm 1 m/s 731 mmHg 96%
    Arată mai mult